Date String (YYYY-MM-DD hh:mm:ss) UTC,Instrument flags,Ambient pressure (hPa),Sample flow (lpm),Bypass flow (lpm),Sample temperature (°C),Ambient temperature (°C),ASC tube jacket temperature (°C),LED temperature (°C),Box temperature (°C),Sample RH (%),Span deviation,Mass concentration (μg/m³),Mass concentration (μg/m³),Mass concentration (μg/m³)
DateTimeUTC,F1_M11,P_M11,Q1_M11,Q2_M11,T1_M11,T2_M11,T3_M11,T4_M11,T5_M11,U1_M11,ZSPAN_M11,X0_M11,X2_M11,X1_M11
2022-05-27 02:00:00,,0826.2,5.01,0.00,29.3,27.1,00.0,38.2,31.0,15.3,0000.0,0011.87,0003.89,0002.81
2022-05-27 02:01:00,,0826.2,5.00,0.00,29.3,27.3,00.0,38.2,31.1,15.1,0000.0,0012.00,0003.89,0002.83
2022-05-27 02:02:00,,0826.3,4.99,0.00,29.3,27.5,00.0,38.2,31.1,14.3,0000.0,0011.84,0003.87,0002.82
2022-05-27 02:03:00,,0826.2,5.01,0.00,29.3,27.7,00.0,38.2,31.2,14.3,0000.0,0010.58,0003.84,0002.81
2022-05-27 02:04:00,,0826.2,5.00,0.00,29.4,27.9,00.0,38.2,31.3,14.3,0000.0,0010.76,0003.85,0002.80
2022-05-27 02:05:00,,0826.2,4.99,0.00,29.4,28.1,00.0,38.2,31.3,13.9,0000.0,0011.01,0003.81,0002.77
2022-05-27 02:06:00,,0826.2,5.01,0.00,29.4,28.3,00.0,38.2,31.4,13.7,0000.0,0011.31,0003.78,0002.75
2022-05-27 02:07:00,,0826.2,5.00,0.00,29.5,28.4,00.0,38.2,31.4,13.9,0000.0,0010.47,0003.76,0002.74
2022-05-27 02:08:00,,0826.2,5.00,0.00,29.5,28.6,00.0,38.3,31.5,13.8,0000.0,0009.78,0003.71,0002.71
2022-05-27 02:09:00,,0826.2,5.00,0.00,29.5,28.7,00.0,38.3,31.6,13.6,0000.0,0010.06,0003.69,0002.68
2022-05-27 02:10:00,,0826.2,4.99,0.00,29.6,28.8,00.0,38.3,31.6,13.4,0000.0,0010.12,0003.69,0002.67
2022-05-27 02:11:00,,0826.2,5.01,0.00,29.6,28.9,00.0,38.3,31.6,13.4,0000.0,0010.21,0003.66,0002.65
2022-05-27 02:12:00,,0826.2,5.00,0.00,29.6,28.3,00.0,38.3,31.4,14.0,0000.0,0010.11,0003.65,0002.64
2022-05-27 02:13:00,,0826.2,4.99,0.00,29.5,27.2,00.0,38.2,31.2,14.3,0000.0,0010.61,0003.68,0002.64
2022-05-27 02:14:00,,0826.2,5.01,0.00,29.4,26.8,00.0,38.2,31.0,15.0,0000.0,0010.74,0003.65,0002.64
2022-05-27 02:15:00,,0826.2,5.00,0.00,29.3,26.8,00.0,38.2,31.0,14.8,0000.0,0011.00,0003.62,0002.65
2022-05-27 02:16:00,,0826.2,4.99,0.00,29.3,27.0,00.0,38.2,31.0,15.1,0000.0,0011.57,0003.65,0002.67
2022-05-27 02:17:00,,0826.2,5.00,0.00,29.3,27.2,00.0,38.2,31.0,14.3,0000.0,0010.85,0003.68,0002.68
2022-05-27 02:18:00,,0826.2,5.01,0.00,29.3,27.4,00.0,38.2,31.1,14.4,0000.0,0010.60,0003.65,0002.69
2022-05-27 02:19:00,,0826.2,5.00,0.00,29.3,27.6,00.0,38.2,31.2,14.7,0000.0,0010.78,0003.69,0002.70
2022-05-27 02:20:00,,0826.2,4.99,0.00,29.3,27.8,00.0,38.2,31.2,15.4,0000.0,0012.07,0003.72,0002.73
2022-05-27 02:21:00,,0826.2,4.99,0.00,29.3,28.0,00.0,38.2,31.3,14.7,0000.0,0013.21,0003.74,0002.73
2022-05-27 02:22:00,,0826.2,5.00,0.00,29.4,28.2,00.0,38.2,31.3,14.0,0000.0,0013.16,0003.78,0002.74
2022-05-27 02:23:00,,0826.3,5.00,0.00,29.4,28.4,00.0,38.2,31.4,13.4,0000.0,0013.03,0003.78,0002.74
2022-05-27 02:24:00,,0826.2,5.00,0.00,29.4,28.5,00.0,38.2,31.4,13.2,0000.0,0013.28,0003.79,0002.74
2022-05-27 02:25:00,,0826.2,5.00,0.00,29.5,28.6,00.0,38.3,31.5,13.2,0000.0,0013.31,0003.74,0002.75
2022-05-27 02:26:00,,0826.3,5.00,0.00,29.5,28.7,00.0,38.3,31.5,14.2,0000.0,0013.18,0003.74,0002.74
2022-05-27 02:27:00,,0826.3,5.00,0.00,29.6,28.8,00.0,38.3,31.6,15.2,0000.0,0012.51,0003.74,0002.76
2022-05-27 02:28:00,,0826.4,5.00,0.00,29.6,28.9,00.0,38.3,31.6,15.0,0000.0,0012.71,0003.80,0002.77
2022-05-27 02:29:00,,0826.4,5.00,0.00,29.7,28.9,00.0,38.4,31.7,15.0,0000.0,0012.75,0003.82,0002.78
2022-05-27 02:30:00,,0826.4,5.00,0.00,29.7,28.4,00.0,38.3,31.5,15.0,0000.0,0012.66,0003.82,0002.79
2022-05-27 02:31:00,,0826.4,5.00,0.00,29.6,27.6,00.0,38.3,31.3,15.3,0000.0,0011.36,0003.82,0002.79
2022-05-27 02:32:00,,0826.4,4.99,0.00,29.5,27.5,00.0,38.3,31.2,15.1,0000.0,0010.06,0003.82,0002.81
2022-05-27 02:33:00,,0826.4,5.00,0.00,29.5,27.5,00.0,38.3,31.2,15.3,0000.0,0009.49,0003.79,0002.81
2022-05-27 02:34:00,,0826.5,5.01,0.00,29.4,27.6,00.0,38.3,31.2,15.4,0000.0,0009.87,0003.81,0002.83
2022-05-27 02:35:00,,0826.5,5.00,0.00,29.4,27.8,00.0,38.3,31.3,15.4,0000.0,0009.96,0003.85,0002.88
2022-05-27 02:36:00,,0826.5,4.99,0.00,29.5,27.9,00.0,38.3,31.3,15.4,0000.0,0009.78,0003.90,0002.90
2022-05-27 02:37:00,,0826.5,5.00,0.00,29.5,28.1,00.0,38.3,31.4,15.5,0000.0,0009.99,0003.92,0002.92
2022-05-27 02:38:00,,0826.5,5.01,0.00,29.5,28.3,00.0,38.3,31.4,15.7,0000.0,0010.27,0003.95,0002.94
2022-05-27 02:39:00,,0826.5,4.99,0.00,29.5,28.4,00.0,38.3,31.4,15.9,0000.0,0010.29,0003.90,0002.94
2022-05-27 02:40:00,,0826.5,5.00,0.00,29.5,28.5,00.0,38.4,31.5,15.9,0000.0,0011.51,0003.90,0002.94
2022-05-27 02:41:00,,0826.5,5.00,0.00,29.6,28.6,00.0,38.4,31.5,15.7,0000.0,0011.91,0003.94,0002.96
2022-05-27 02:42:00,,0826.5,5.00,0.00,29.6,28.7,00.0,38.4,31.6,15.5,0000.0,0012.05,0003.94,0002.98
2022-05-27 02:43:00,,0826.5,4.99,0.00,29.7,28.8,00.0,38.4,31.6,15.3,0000.0,0012.36,0003.93,0002.97
2022-05-27 02:44:00,,0826.5,4.99,0.00,29.7,28.9,00.0,38.4,31.7,15.2,0000.0,0012.95,0003.94,0002.99
2022-05-27 02:45:00,,0826.5,5.00,0.00,29.7,28.3,00.0,38.4,31.5,15.3,0000.0,0012.85,0003.93,0003.00
2022-05-27 02:46:00,,0826.5,5.00,0.00,29.6,27.5,00.0,38.3,31.3,15.4,0000.0,0013.31,0003.92,0002.97
2022-05-27 02:47:00,,0826.5,4.99,0.00,29.5,27.3,00.0,38.3,31.2,15.5,0000.0,0013.20,0003.92,0002.97
2022-05-27 02:48:00,,0826.5,5.01,0.00,29.5,27.4,00.0,38.3,31.2,15.3,0000.0,0013.49,0003.93,0002.98
2022-05-27 02:49:00,,0826.5,4.99,0.00,29.4,27.5,00.0,38.3,31.2,15.4,0000.0,0013.05,0003.91,0002.97
2022-05-27 02:50:00,,0826.5,4.99,0.00,29.4,27.7,00.0,38.3,31.2,15.3,0000.0,0013.43,0003.92,0002.96
2022-05-27 02:51:00,,0826.5,5.01,0.00,29.4,27.9,00.0,38.3,31.3,14.6,0000.0,0012.63,0003.94,0002.97
2022-05-27 02:52:00,,0826.5,5.00,0.00,29.5,28.0,00.0,38.3,31.3,14.6,0000.0,0012.05,0003.91,0002.96
2022-05-27 02:53:00,,0826.5,5.00,0.00,29.5,28.2,00.0,38.3,31.4,14.7,0000.0,0012.14,0003.88,0002.94
2022-05-27 02:54:00,,0826.5,5.00,0.00,29.5,28.3,00.0,38.3,31.4,14.7,0000.0,0012.27,0003.90,0002.94
2022-05-27 02:55:00,,0826.5,5.00,0.00,29.5,28.4,00.0,38.3,31.4,14.8,0000.0,0011.91,0003.91,0002.92
2022-05-27 02:56:00,,0826.5,5.00,0.00,29.6,28.5,00.0,38.4,31.5,14.8,0000.0,0012.55,0003.90,0002.90
2022-05-27 02:57:00,,0826.6,4.99,0.00,29.6,28.6,00.0,38.4,31.5,14.8,0000.0,0011.66,0003.89,0002.89
2022-05-27 02:58:00,,0826.6,5.00,0.00,29.6,28.7,00.0,38.4,31.6,14.8,0000.0,0011.34,0003.86,0002.88
2022-05-27 02:59:00,,0826.6,5.01,0.00,29.7,28.8,00.0,38.4,31.6,14.7,0000.0,0011.68,0003.83,0002.87
